Tracking 19219 objects as of 20-Jul-2018
HD Live streaming from Space Station
objects crossing your sky now

SINAH 1

Track SINAH 1 now!
10-day predictions
SINAH 1 is classified as:


NORAD ID: 28893
Int'l Code: 2005-043D
Perigee: 685.1 km
Apogee: 706.0 km
Inclination: 97.9 °
Period: 98.5 minutes
Semi major axis: 7066 km
RCS: 0.8773 m2 (medium)
Launch date: October 27, 2005
Source: Iran (IRAN)
Launch site: PLESETSK MISSILE AND SPACE COMPLEX (PKMTR)

Sinah 1 is an Iranian microsatellite (170 kg). Iranian press reports that it is intended for "telecommunications and research".
aabbcc
Your satellite tracking list
Your tracking list is empty




NASA's NSSDC Master Catalog

Two Line Element Set (TLE):
1 28893U 05043D   18200.59912103 -.00000003 +00000-0 +85160-5 0  9992
2 28893 097.9268 345.9072 0014778 346.0317 014.0474 14.61478863678249
Source of the keplerian elements: AFSPC